contact:dominique.lefevre@mio.osupytheas.fr, maurice.libes@osupytheas.fr, didier.mallarino@osupytheas.fr
Project:EMSO http://www.emso-fr.org/EMSO-France
Depth: 2436.0 m
Title:EMSO Ligure Ouest : Data MII capteur AQUADOPP
Date,Latitude,Longitude,X_East,Y_North,Z_Up,Amplitude_X,Amplitude_Y,Amplitude_Z,Batterie,SoundSpeed,Heading,Pitch,Roll,Pressure,TIS,Speed,Direction
, degrees North, degrees East, m.s-1, m.s-1,m.s-1, 1, 1, 1, Volt, m.s-1, degree, degree, degree, dbar, degree_C, m.s-1, degree
2020-04-25T00:04:03,42.805,6.029,0.026,0.008,-0.022,108.0,110.0,104.0,13.4,1505.3,326.9,-0.8,1.8,2470.326,13.31,0.027,72.9
2020-04-25T00:07:03,42.805,6.029,0.036,0.021,-0.027,106.0,109.0,104.0,13.3,1505.3,326.0,-0.7,1.8,2470.371,13.31,0.041,59.7
2020-04-25T00:10:03,42.805,6.029,0.028,0.015,-0.023,108.0,112.0,103.0,13.4,1505.3,324.2,-0.7,1.8,2470.327,13.32,0.031,61.8
2020-04-25T00:13:03,42.805,6.029,0.045,-0.001,-0.017,107.0,110.0,103.0,13.4,1505.3,326.9,-0.7,1.8,2470.331,13.32,0.045,91.3
2020-04-25T00:16:03,42.805,6.029,0.025,0.0,0.001,107.0,111.0,105.0,13.3,1505.3,325.1,-0.7,1.8,2470.3,13.32,0.025,90.0
2020-04-25T00:19:03,42.805,6.029,0.032,-0.013,-0.017,105.0,111.0,104.0,13.4,1505.3,328.2,-0.7,1.8,2470.318,13.32,0.034,112.1
2020-04-25T00:22:03,42.805,6.029,0.031,0.003,-0.029,107.0,111.0,102.0,13.4,1505.3,327.8,-0.7,1.9,2470.327,13.32,0.031,84.5
2020-04-25T00:25:03,42.805,6.029,0.031,0.012,-0.013,106.0,110.0,103.0,13.4,1505.3,325.4,-0.7,1.8,2470.343,13.32,0.033,68.8
2020-04-25T00:28:03,42.805,6.029,0.025,0.004,-0.017,106.0,112.0,104.0,13.4,1505.3,327.1,-0.7,1.8,2470.303,13.32,0.025,80.9
2020-04-25T00:31:03,42.805,6.029,0.031,-0.022,-0.002,107.0,111.0,104.0,13.4,1505.3,325.7,-0.7,1.8,2470.312,13.32,0.038,125.4
2020-04-25T00:34:03,42.805,6.029,0.04,0.014,0.009,108.0,110.0,103.0,13.3,1505.3,325.0,-0.7,1.8,2470.32,13.33,0.042,70.7
2020-04-25T00:37:03,42.805,6.029,0.045,-0.007,0.005,106.0,111.0,104.0,13.4,1505.3,325.3,-0.7,1.8,2470.321,13.32,0.045,98.8
2020-04-25T00:40:03,42.805,6.029,0.022,-0.006,-0.045,108.0,111.0,103.0,13.4,1505.3,323.2,-0.7,1.8,2470.325,13.32,0.022,105.3
2020-04-25T00:43:03,42.805,6.029,0.047,0.005,-0.013,106.0,110.0,103.0,13.3,1505.3,326.8,-0.7,1.8,2470.285,13.32,0.047,83.9
2020-04-25T00:46:03,42.805,6.029,0.021,0.009,-0.025,105.0,112.0,103.0,13.3,1505.3,324.6,-0.7,1.8,2470.275,13.32,0.022,66.8
2020-04-25T00:49:03,42.805,6.029,0.03,0.005,-0.024,107.0,111.0,102.0,13.4,1505.3,326.3,-0.7,1.9,2470.272,13.32,0.03,80.5
2020-04-25T00:52:03,42.805,6.029,0.058,-0.017,-0.023,105.0,110.0,103.0,13.4,1505.3,327.2,-0.7,1.8,2470.336,13.32,0.06,106.3
2020-04-25T00:55:03,42.805,6.029,0.043,-0.008,-0.012,105.0,110.0,104.0,13.4,1505.3,328.3,-0.7,1.8,2470.288,13.32,0.043,100.5
2020-04-25T00:58:03,42.805,6.029,0.05,0.003,0.008,105.0,112.0,102.0,13.4,1505.3,326.1,-0.7,1.8,2470.338,13.32,0.05,86.6
2020-04-25T01:04:03,42.805,6.029,0.061,-0.002,0.02,106.0,109.0,104.0,13.4,1505.2,323.7,-0.7,1.8,2470.351,13.3,0.061,91.9
2020-04-25T01:07:03,42.805,6.029,0.026,-0.003,-0.031,104.0,110.0,103.0,13.4,1505.3,327.2,-0.7,1.8,2470.294,13.31,0.026,96.6
2020-04-25T01:10:03,42.805,6.029,0.071,0.0,0.006,105.0,108.0,102.0,13.4,1505.3,327.4,-0.7,1.9,2470.321,13.32,0.07,90.0
2020-04-25T01:13:03,42.805,6.029,0.04,-0.004,-0.049,106.0,109.0,102.0,13.3,1505.3,325.3,-0.7,1.8,2470.323,13.32,0.04,95.7
2020-04-25T01:16:03,42.805,6.029,0.031,-0.008,-0.022,108.0,108.0,103.0,13.4,1505.3,323.9,-0.7,1.8,2470.302,13.32,0.032,104.5
2020-04-25T01:19:03,42.805,6.029,0.063,0.0,0.006,105.0,109.0,101.0,13.4,1505.3,326.7,-0.7,1.8,2470.264,13.32,0.062,90.0
2020-04-25T01:22:03,42.805,6.029,0.074,-0.013,0.032,106.0,109.0,101.0,13.4,1505.3,326.7,-0.7,1.8,2470.247,13.32,0.075,100.0
2020-04-25T01:25:03,42.805,6.029,0.014,0.004,-0.035,104.0,110.0,102.0,13.4,1505.3,323.8,-0.7,1.8,2470.305,13.32,0.014,74.1
2020-04-25T01:28:03,42.805,6.029,0.044,0.017,-0.001,105.0,109.0,101.0,13.3,1505.3,324.7,-0.7,1.8,2470.257,13.32,0.047,68.9
2020-04-25T01:31:03,42.805,6.029,0.053,-0.003,-0.036,106.0,110.0,102.0,13.4,1505.3,325.8,-0.7,1.8,2470.273,13.32,0.053,93.2
2020-04-25T01:34:03,42.805,6.029,0.037,0.0,-0.021,105.0,111.0,102.0,13.4,1505.3,327.0,-0.7,1.8,2470.298,13.32,0.037,90.0
2020-04-25T01:37:03,42.805,6.029,0.02,-0.009,-0.01,106.0,109.0,103.0,13.4,1505.3,326.4,-0.7,1.8,2470.27,13.32,0.021,114.2
2020-04-25T01:40:03,42.805,6.029,-0.001,-0.01,-0.008,106.0,109.0,102.0,13.4,1505.3,325.7,-0.7,1.8,2470.282,13.32,0.01,185.7
2020-04-25T01:43:03,42.805,6.029,0.043,0.003,0.005,105.0,110.0,102.0,13.4,1505.3,326.7,-0.7,1.8,2470.259,13.32,0.043,86.0
2020-04-25T01:46:03,42.805,6.029,0.022,0.004,-0.001,105.0,108.0,102.0,13.3,1505.3,326.3,-0.7,1.8,2470.263,13.32,0.022,79.7
2020-04-25T01:49:03,42.805,6.029,0.045,0.028,-0.024,106.0,110.0,103.0,13.4,1505.3,323.5,-0.7,1.8,2470.251,13.33,0.053,58.1
2020-04-25T01:52:03,42.805,6.029,0.023,-0.011,-0.009,104.0,110.0,102.0,13.4,1505.3,327.6,-0.7,1.8,2470.285,13.33,0.025,115.6
2020-04-25T01:55:03,42.805,6.029,0.038,0.006,0.012,106.0,109.0,101.0,13.3,1505.3,326.3,-0.7,1.8,2470.279,13.32,0.038,81.0
2020-04-25T01:58:03,42.805,6.029,0.043,0.002,-0.039,104.0,109.0,101.0,13.4,1505.3,326.9,-0.7,1.8,2470.232,13.32,0.043,87.3
2020-04-25T02:04:03,42.805,6.029,0.005,-0.02,-0.021,105.0,110.0,102.0,13.4,1505.2,328.4,-0.7,1.8,2470.273,13.3,0.02,166.0
2020-04-25T02:07:03,42.805,6.029,0.016,0.008,-0.017,104.0,109.0,102.0,13.3,1505.3,325.1,-0.7,1.9,2470.31,13.31,0.017,63.4
2020-04-25T02:10:03,42.805,6.029,0.038,-0.005,0.005,104.0,109.0,101.0,13.4,1505.3,323.9,-0.7,1.8,2470.292,13.32,0.038,97.5
2020-04-25T02:13:03,42.805,6.029,-0.007,0.001,-0.026,103.0,111.0,102.0,13.4,1505.3,325.1,-0.7,1.8,2470.285,13.32,0.007,278.1
2020-04-25T02:16:03,42.805,6.029,0.028,0.011,-0.028,104.0,109.0,102.0,13.4,1505.3,328.0,-0.7,1.8,2470.279,13.32,0.03,68.6
2020-04-25T02:19:03,42.805,6.029,0.025,-0.006,-0.026,105.0,109.0,102.0,13.4,1505.3,326.5,-0.7,1.8,2470.303,13.32,0.025,103.5
2020-04-25T02:22:03,42.805,6.029,0.013,0.024,-0.036,106.0,107.0,102.0,13.4,1505.3,323.2,-0.7,1.8,2470.262,13.32,0.027,28.4
2020-04-25T02:25:03,42.805,6.029,0.022,0.007,-0.05,105.0,110.0,102.0,13.4,1505.3,323.2,-0.7,1.8,2470.3,13.33,0.023,72.4
2020-04-25T02:28:03,42.805,6.029,0.033,-0.003,-0.028,105.0,108.0,103.0,13.3,1505.3,325.9,-0.7,1.8,2470.283,13.33,0.033,95.2
2020-04-25T02:31:03,42.805,6.029,0.032,-0.015,-0.007,104.0,108.0,102.0,13.4,1505.3,326.4,-0.7,1.8,2470.311,13.33,0.035,115.1
2020-04-25T02:37:03,42.805,6.029,0.036,-0.002,-0.018,105.0,109.0,102.0,13.4,1505.3,325.0,-0.7,1.8,2470.309,13.31,0.036,93.2
2020-04-25T02:40:03,42.805,6.029,0.031,0.002,-0.013,104.0,108.0,101.0,13.4,1505.3,325.5,-0.7,1.9,2470.304,13.31,0.031,86.3
2020-04-25T02:43:03,42.805,6.029,0.028,-0.008,-0.002,106.0,107.0,103.0,13.4,1505.3,327.0,-0.7,1.8,2470.318,13.32,0.029,105.9
2020-04-25T02:46:03,42.805,6.029,0.051,-0.002,0.02,106.0,108.0,101.0,13.4,1505.3,323.0,-0.8,1.8,2470.283,13.32,0.051,92.2
2020-04-25T02:49:03,42.805,6.029,0.044,0.0,-0.006,106.0,109.0,103.0,13.3,1505.3,323.5,-0.7,1.8,2470.292,13.32,0.044,90.0
2020-04-25T02:52:03,42.805,6.029,0.004,0.018,0.005,105.0,109.0,102.0,13.4,1505.3,323.0,-0.7,1.8,2470.27,13.32,0.018,12.5
2020-04-25T02:55:03,42.805,6.029,0.001,0.003,-0.026,106.0,108.0,102.0,13.4,1505.3,322.7,-0.7,1.8,2470.257,13.32,0.003,18.4
2020-04-25T02:58:03,42.805,6.029,0.001,0.0,-0.01,106.0,110.0,103.0,13.4,1505.3,324.7,-0.7,1.8,2470.273,13.33,0.001,90.0
2020-04-25T03:04:03,42.805,6.029,0.018,-0.012,-0.026,104.0,110.0,102.0,13.4,1505.3,326.8,-0.7,1.8,2470.273,13.31,0.021,123.7
2020-04-25T03:07:03,42.805,6.029,0.0,-0.002,-0.026,105.0,109.0,102.0,13.4,1505.3,324.1,-0.7,1.9,2470.266,13.31,0.002,180.0
2020-04-25T03:10:03,42.805,6.029,0.002,-0.022,-0.036,105.0,108.0,103.0,13.4,1505.3,325.6,-0.7,1.8,2470.273,13.32,0.022,174.8
2020-04-25T03:13:03,42.805,6.029,0.016,-0.021,-0.011,106.0,111.0,102.0,13.4,1505.3,328.2,-0.7,1.8,2470.279,13.32,0.026,142.7
2020-04-25T03:16:03,42.805,6.029,0.021,0.015,-0.003,106.0,110.0,102.0,13.3,1505.3,323.0,-0.7,1.8,2470.259,13.32,0.025,54.5
2020-04-25T03:19:03,42.805,6.029,0.005,0.0,-0.04,106.0,110.0,103.0,13.4,1505.3,326.0,-0.7,1.8,2470.235,13.33,0.005,90.0
2020-04-25T03:22:03,42.805,6.029,0.005,-0.016,-0.022,105.0,109.0,102.0,13.4,1505.3,325.7,-0.7,1.8,2470.27,13.33,0.016,162.6
2020-04-25T03:25:03,42.805,6.029,0.021,-0.002,-0.017,107.0,110.0,102.0,13.4,1505.3,324.4,-0.7,1.8,2470.211,13.33,0.021,95.4
2020-04-25T03:28:03,42.805,6.029,0.03,0.024,-0.033,106.0,109.0,103.0,13.3,1505.3,327.0,-0.7,1.8,2470.232,13.33,0.038,51.3
2020-04-25T03:31:03,42.805,6.029,0.031,0.019,-0.024,105.0,110.0,103.0,13.4,1505.3,325.0,-0.7,1.8,2470.269,13.33,0.036,58.5
2020-04-25T03:34:03,42.805,6.029,0.04,-0.002,0.0,106.0,109.0,103.0,13.4,1505.3,328.4,-0.7,1.8,2470.255,13.33,0.04,92.9
2020-04-25T03:37:03,42.805,6.029,0.013,0.004,-0.019,105.0,109.0,102.0,13.3,1505.3,325.9,-0.7,1.9,2470.254,13.33,0.013,72.9
2020-04-25T03:40:03,42.805,6.029,0.03,-0.008,-0.008,107.0,110.0,102.0,13.3,1505.3,324.8,-0.7,1.8,2470.285,13.33,0.031,104.9
2020-04-25T03:43:03,42.805,6.029,0.027,-0.011,-0.056,106.0,108.0,103.0,13.4,1505.3,325.0,-0.7,1.8,2470.217,13.33,0.029,112.2
2020-04-25T03:46:03,42.805,6.029,0.032,-0.004,-0.014,105.0,108.0,103.0,13.4,1505.3,324.3,-0.7,1.8,2470.241,13.33,0.032,97.1
2020-04-25T03:49:03,42.805,6.029,0.035,0.012,-0.014,106.0,108.0,104.0,13.4,1505.3,324.8,-0.7,1.8,2470.256,13.33,0.037,71.1
2020-04-25T03:52:03,42.805,6.029,0.022,-0.006,0.006,106.0,108.0,103.0,13.3,1505.3,328.1,-0.8,1.8,2470.217,13.33,0.022,105.3
2020-04-25T03:55:03,42.805,6.029,0.003,-0.001,-0.026,106.0,110.0,102.0,13.3,1505.3,323.0,-0.7,1.8,2470.24,13.33,0.003,108.4
2020-04-25T03:58:03,42.805,6.029,0.019,0.006,-0.007,106.0,110.0,103.0,13.4,1505.3,325.4,-0.7,1.8,2470.243,13.33,0.019,72.5
2020-04-25T04:04:03,42.805,6.029,0.015,-0.01,-0.017,105.0,109.0,103.0,13.4,1505.3,328.4,-0.7,1.8,2470.315,13.31,0.018,123.7
2020-04-25T04:07:03,42.805,6.029,-0.003,-0.015,-0.032,104.0,110.0,103.0,13.4,1505.3,324.7,-0.7,1.9,2470.286,13.31,0.015,191.3
2020-04-25T04:10:03,42.805,6.029,0.028,0.007,-0.026,104.0,108.0,104.0,13.4,1505.3,325.9,-0.7,1.9,2470.259,13.32,0.028,76.0
2020-04-25T04:13:03,42.805,6.029,0.042,-0.022,-0.011,105.0,109.0,102.0,13.4,1505.3,325.0,-0.7,1.8,2470.269,13.32,0.047,117.6
2020-04-25T04:16:03,42.805,6.029,0.031,-0.01,-0.055,105.0,108.0,103.0,13.4,1505.3,325.4,-0.7,1.8,2470.26,13.32,0.032,107.9
2020-04-25T04:19:03,42.805,6.029,0.004,0.004,-0.014,106.0,109.0,102.0,13.4,1505.3,323.8,-0.7,1.9,2470.266,13.32,0.005,45.0
2020-04-25T04:22:03,42.805,6.029,0.021,-0.014,-0.073,106.0,108.0,102.0,13.4,1505.3,327.9,-0.7,1.8,2470.232,13.33,0.025,123.7
2020-04-25T04:25:03,42.805,6.029,0.019,0.011,0.0,105.0,110.0,103.0,13.3,1505.3,327.9,-0.7,1.8,2470.28,13.33,0.021,59.9
2020-04-25T04:28:03,42.805,6.029,0.031,-0.004,0.024,106.0,110.0,103.0,13.4,1505.3,325.8,-0.7,1.8,2470.263,13.33,0.031,97.3
2020-04-25T04:31:03,42.805,6.029,0.01,0.023,-0.017,106.0,109.0,102.0,13.4,1505.3,326.3,-0.7,1.9,2470.3,13.33,0.025,23.5
2020-04-25T04:34:03,42.805,6.029,0.009,0.006,-0.019,104.0,108.0,102.0,13.4,1505.3,325.2,-0.7,1.8,2470.264,13.33,0.01,56.3
2020-04-25T04:37:03,42.805,6.029,0.014,0.009,0.014,106.0,109.0,103.0,13.4,1505.3,326.5,-0.7,1.9,2470.278,13.33,0.016,57.3
2020-04-25T04:40:03,42.805,6.029,0.034,0.006,-0.002,103.0,108.0,102.0,13.4,1505.3,323.2,-0.7,1.8,2470.273,13.33,0.034,80.0
2020-04-25T04:43:03,42.805,6.029,-0.039,-0.001,-0.043,104.0,110.0,102.0,13.4,1505.3,324.0,-0.7,1.8,2470.268,13.33,0.039,268.5
2020-04-25T04:46:03,42.805,6.029,0.0,0.0,-0.036,104.0,110.0,103.0,13.4,1505.3,326.1,-0.7,1.8,2470.285,13.33,0.0,0.0
2020-04-25T04:49:03,42.805,6.029,-0.016,-0.001,-0.034,104.0,110.0,102.0,13.4,1505.3,323.0,-0.7,1.9,2470.261,13.33,0.016,266.4
2020-04-25T04:52:03,42.805,6.029,-0.006,0.006,-0.038,106.0,110.0,103.0,13.4,1505.3,324.3,-0.7,1.8,2470.245,13.33,0.008,315.0
2020-04-25T04:55:03,42.805,6.029,0.003,-0.017,-0.036,106.0,111.0,102.0,13.4,1505.3,326.3,-0.7,1.9,2470.23,13.33,0.017,170.0
2020-04-25T04:58:03,42.805,6.029,0.008,0.006,-0.043,104.0,112.0,103.0,13.4,1505.3,324.8,-0.7,1.8,2470.301,13.33,0.01,53.1
2020-04-25T05:04:03,42.805,6.029,0.001,0.006,-0.035,107.0,110.0,102.0,13.3,1505.3,324.0,-0.8,1.8,2470.307,13.31,0.006,9.5
2020-04-25T05:07:03,42.805,6.029,0.011,0.009,-0.042,105.0,111.0,103.0,13.4,1505.3,326.6,-0.7,1.8,2470.281,13.32,0.014,50.7
2020-04-25T05:10:03,42.805,6.029,0.011,0.007,-0.011,106.0,111.0,104.0,13.3,1505.3,328.1,-0.7,1.8,2470.289,13.32,0.013,57.5
2020-04-25T05:13:03,42.805,6.029,-0.002,-0.005,-0.019,105.0,110.0,103.0,13.4,1505.3,326.4,-0.7,1.8,2470.303,13.32,0.005,201.8
2020-04-25T05:16:03,42.805,6.029,0.002,-0.006,-0.037,106.0,108.0,103.0,13.4,1505.3,327.3,-0.7,1.8,2470.253,13.33,0.006,161.6
2020-04-25T05:19:03,42.805,6.029,0.017,0.007,-0.025,106.0,111.0,101.0,13.3,1505.3,327.0,-0.7,1.8,2470.351,13.33,0.018,67.6
2020-04-25T05:22:03,42.805,6.029,0.015,0.001,-0.038,104.0,110.0,102.0,13.4,1505.3,325.9,-0.7,1.8,2470.301,13.33,0.015,86.2
2020-04-25T05:25:03,42.805,6.029,0.007,-0.008,-0.047,104.0,111.0,101.0,13.4,1505.3,327.2,-0.7,1.8,2470.276,13.33,0.01,138.8
2020-04-25T05:28:03,42.805,6.029,-0.001,0.005,-0.018,106.0,111.0,103.0,13.4,1505.3,324.0,-0.7,1.8,2470.31,13.33,0.005,348.7
2020-04-25T05:31:03,42.805,6.029,0.007,0.005,-0.017,107.0,111.0,103.0,13.4,1505.3,326.3,-0.7,1.8,2470.279,13.33,0.008,54.5
2020-04-25T05:34:03,42.805,6.029,0.022,-0.001,-0.012,105.0,111.0,103.0,13.4,1505.3,324.5,-0.7,1.9,2470.324,13.33,0.022,92.6
2020-04-25T05:37:03,42.805,6.029,0.007,-0.008,-0.02,106.0,110.0,102.0,13.4,1505.3,326.9,-0.7,1.8,2470.31,13.33,0.01,138.8
2020-04-25T05:40:03,42.805,6.029,0.03,0.007,0.012,105.0,112.0,102.0,13.3,1505.3,328.0,-0.7,1.8,2470.284,13.33,0.03,76.9
2020-04-25T05:43:03,42.805,6.029,0.022,-0.006,-0.009,103.0,110.0,104.0,13.3,1505.3,325.3,-0.7,1.8,2470.273,13.33,0.022,105.3
2020-04-25T05:46:03,42.805,6.029,-0.017,-0.002,-0.044,105.0,109.0,103.0,13.4,1505.3,325.3,-0.7,1.8,2470.25,13.33,0.017,263.3
2020-04-25T05:49:03,42.805,6.029,-0.025,-0.014,-0.071,104.0,110.0,102.0,13.3,1505.3,325.2,-0.7,1.8,2470.329,13.33,0.028,240.7
2020-04-25T05:52:03,42.805,6.029,-0.024,-0.008,-0.058,104.0,110.0,103.0,13.4,1505.3,324.1,-0.7,1.8,2470.32,13.33,0.025,251.6
2020-04-25T05:55:03,42.805,6.029,-0.021,-0.002,-0.046,104.0,108.0,102.0,13.3,1505.3,326.4,-0.7,1.8,2470.291,13.33,0.021,264.6
2020-04-25T05:58:03,42.805,6.029,-0.011,0.001,-0.052,105.0,110.0,102.0,13.4,1505.3,323.4,-0.7,1.8,2470.343,13.33,0.011,275.2
2020-04-25T06:04:03,42.805,6.029,0.025,-0.006,-0.021,105.0,108.0,102.0,13.3,1505.3,323.6,-0.7,1.8,2470.367,13.31,0.025,103.5
2020-04-25T06:07:03,42.805,6.029,0.037,-0.005,-0.015,105.0,108.0,102.0,13.3,1505.3,324.7,-0.7,1.8,2470.34,13.31,0.037,97.7
2020-04-25T06:10:03,42.805,6.029,-0.002,0.005,-0.042,104.0,108.0,103.0,13.3,1505.3,324.8,-0.7,1.8,2470.393,13.32,0.005,338.2
2020-04-25T06:13:03,42.805,6.029,0.042,-0.007,-0.041,106.0,109.0,100.0,13.4,1505.3,328.0,-0.7,1.8,2470.353,13.32,0.042,99.5
2020-04-25T06:16:03,42.805,6.029,-0.011,-0.01,-0.036,105.0,108.0,102.0,13.3,1505.3,327.7,-0.7,1.8,2470.35,13.32,0.014,227.7
2020-04-25T06:19:03,42.805,6.029,-0.001,-0.013,-0.002,104.0,108.0,101.0,13.4,1505.3,328.6,-0.7,1.8,2470.38,13.33,0.013,184.4
2020-04-25T06:22:03,42.805,6.029,-0.032,-0.002,-0.05,104.0,109.0,101.0,13.3,1505.3,324.8,-0.7,1.8,2470.343,13.33,0.032,266.4
2020-04-25T06:25:03,42.805,6.029,0.027,0.01,-0.027,105.0,108.0,103.0,13.4,1505.3,327.8,-0.7,1.8,2470.327,13.33,0.028,69.7
2020-04-25T06:28:03,42.805,6.029,0.005,-0.014,-0.066,103.0,110.0,101.0,13.4,1505.3,326.4,-0.7,1.8,2470.358,13.33,0.014,160.4
2020-04-25T06:31:03,42.805,6.029,-0.006,0.008,-0.02,104.0,107.0,103.0,13.4,1505.3,324.7,-0.7,1.8,2470.37,13.33,0.01,323.1
2020-04-25T06:34:03,42.805,6.029,0.001,-0.001,-0.018,105.0,109.0,102.0,13.4,1505.3,326.0,-0.7,1.8,2470.358,13.33,0.001,135.0
2020-04-25T06:37:03,42.805,6.029,0.012,0.01,-0.009,106.0,111.0,102.0,13.4,1505.3,323.1,-0.7,1.8,2470.381,13.33,0.015,50.2
2020-04-25T06:40:03,42.805,6.029,0.029,0.014,-0.011,103.0,111.0,103.0,13.3,1505.3,326.8,-0.7,1.8,2470.37,13.33,0.032,64.2
2020-04-25T06:43:03,42.805,6.029,0.021,0.015,0.023,104.0,111.0,102.0,13.4,1505.3,324.2,-0.7,1.8,2470.41,13.33,0.025,54.5
2020-04-25T06:46:03,42.805,6.029,0.01,0.007,-0.037,105.0,111.0,103.0,13.3,1505.3,326.5,-0.7,1.8,2470.372,13.33,0.012,55.0
2020-04-25T06:49:03,42.805,6.029,-0.003,0.016,-0.032,105.0,110.0,101.0,13.4,1505.3,326.3,-0.7,1.8,2470.356,13.33,0.016,349.4
2020-04-25T06:52:03,42.805,6.029,0.009,-0.006,-0.019,104.0,111.0,103.0,13.4,1505.3,328.3,-0.7,1.9,2470.362,13.33,0.01,123.7
2020-04-25T06:55:03,42.805,6.029,-0.015,0.006,-0.057,104.0,109.0,102.0,13.4,1505.3,327.1,-0.7,1.9,2470.339,13.33,0.016,291.8
2020-04-25T06:58:03,42.805,6.029,0.027,0.016,-0.016,104.0,109.0,102.0,13.4,1505.3,326.4,-0.7,1.8,2470.358,13.33,0.031,59.3
2020-04-25T07:04:03,42.805,6.029,0.032,0.0,-0.001,104.0,109.0,103.0,13.4,1505.3,325.0,-0.7,1.8,2470.405,13.31,0.032,90.0
2020-04-25T07:07:03,42.805,6.029,0.0,-0.003,-0.05,105.0,109.0,103.0,13.3,1505.3,326.9,-0.7,1.8,2470.372,13.32,0.003,180.0
2020-04-25T07:10:03,42.805,6.029,0.001,0.003,-0.054,106.0,111.0,101.0,13.4,1505.3,325.1,-0.7,1.8,2470.4,13.32,0.003,18.4
2020-04-25T07:13:03,42.805,6.029,0.028,0.024,-0.026,105.0,110.0,101.0,13.3,1505.3,323.5,-0.7,1.8,2470.395,13.32,0.036,49.4
2020-04-25T07:16:03,42.805,6.029,-0.003,0.0,-0.008,105.0,110.0,102.0,13.4,1505.3,323.3,-0.7,1.8,2470.382,13.33,0.003,270.0
2020-04-25T07:19:03,42.805,6.029,0.047,0.008,-0.022,104.0,109.0,102.0,13.3,1505.3,326.3,-0.7,1.8,2470.442,13.33,0.047,80.3
2020-04-25T07:22:03,42.805,6.029,0.025,0.016,-0.012,106.0,109.0,103.0,13.4,1505.3,325.1,-0.7,1.8,2470.372,13.33,0.029,57.4
2020-04-25T07:25:03,42.805,6.029,0.017,0.002,-0.012,105.0,110.0,101.0,13.4,1505.3,326.0,-0.7,1.8,2470.409,13.33,0.017,83.3
2020-04-25T07:28:03,42.805,6.029,0.02,-0.003,0.005,103.0,110.0,101.0,13.4,1505.3,325.6,-0.7,1.9,2470.408,13.33,0.02,98.5
2020-04-25T07:31:03,42.805,6.029,0.022,0.001,-0.038,105.0,110.0,102.0,13.3,1505.3,324.7,-0.7,1.9,2470.451,13.33,0.022,87.4
2020-04-25T07:34:03,42.805,6.029,0.01,0.015,-0.042,107.0,111.0,100.0,13.4,1505.3,327.2,-0.7,1.8,2470.352,13.33,0.018,33.7
2020-04-25T07:37:03,42.805,6.029,0.009,0.009,-0.022,105.0,110.0,102.0,13.4,1505.3,325.2,-0.7,1.8,2470.421,13.33,0.012,45.0
2020-04-25T07:40:03,42.805,6.029,0.049,0.0,0.016,105.0,110.0,102.0,13.4,1505.3,326.5,-0.7,1.8,2470.434,13.33,0.049,90.0
2020-04-25T07:43:03,42.805,6.029,0.024,0.008,-0.011,105.0,112.0,103.0,13.4,1505.3,326.8,-0.7,1.8,2470.409,13.33,0.025,71.6
2020-04-25T07:46:03,42.805,6.029,0.021,0.01,0.004,104.0,110.0,102.0,13.4,1505.3,325.6,-0.7,1.9,2470.374,13.33,0.023,64.5
2020-04-25T07:49:03,42.805,6.029,0.002,0.02,-0.016,106.0,111.0,103.0,13.3,1505.3,326.7,-0.7,1.8,2470.416,13.33,0.02,5.7
2020-04-25T07:52:03,42.805,6.029,0.033,0.022,0.025,105.0,109.0,102.0,13.4,1505.3,324.0,-0.7,1.8,2470.395,13.33,0.039,56.3
2020-04-25T07:55:03,42.805,6.029,0.016,0.007,-0.062,104.0,111.0,103.0,13.4,1505.3,327.9,-0.7,1.8,2470.416,13.33,0.017,66.4
2020-04-25T07:58:03,42.805,6.029,0.035,0.025,-0.01,105.0,111.0,103.0,13.4,1505.3,322.9,-0.7,1.8,2470.402,13.33,0.043,54.5
2020-04-25T08:04:03,42.805,6.029,0.017,0.021,0.004,105.0,110.0,102.0,13.3,1505.3,324.1,-0.7,1.8,2470.461,13.31,0.027,39.0
2020-04-25T08:07:03,42.805,6.029,0.017,0.019,-0.004,105.0,110.0,103.0,13.4,1505.3,326.0,-0.7,1.8,2470.446,13.32,0.025,41.8
2020-04-25T08:10:03,42.805,6.029,0.017,0.012,0.004,105.0,110.0,102.0,13.4,1505.3,325.5,-0.7,1.9,2470.422,13.32,0.02,54.8
2020-04-25T08:13:03,42.805,6.029,0.031,0.014,0.009,105.0,110.0,103.0,13.3,1505.3,323.5,-0.7,1.9,2470.428,13.32,0.034,65.7
2020-04-25T08:16:03,42.805,6.029,0.034,0.02,-0.016,107.0,111.0,103.0,13.4,1505.3,327.6,-0.7,1.8,2470.424,13.33,0.039,59.5
2020-04-25T08:19:03,42.805,6.029,0.035,0.015,-0.021,104.0,110.0,103.0,13.4,1505.3,327.8,-0.7,1.8,2470.394,13.33,0.038,66.8
2020-04-25T08:22:03,42.805,6.029,-0.015,0.004,-0.059,106.0,113.0,101.0,13.4,1505.3,327.6,-0.7,1.8,2470.435,13.33,0.015,284.9
2020-04-25T08:25:03,42.805,6.029,0.023,0.004,-0.017,106.0,114.0,105.0,13.3,1505.3,326.9,-0.7,1.8,2470.419,13.33,0.023,80.1
2020-04-25T08:28:03,42.805,6.029,0.008,0.001,-0.048,107.0,111.0,102.0,13.4,1505.3,325.8,-0.7,1.8,2470.392,13.33,0.008,82.9
2020-04-25T08:31:03,42.805,6.029,-0.011,0.016,-0.018,106.0,112.0,103.0,13.4,1505.3,326.7,-0.7,1.8,2470.397,13.33,0.019,325.5
2020-04-25T08:34:03,42.805,6.029,0.004,-0.001,-0.039,107.0,112.0,103.0,13.4,1505.3,323.6,-0.7,1.8,2470.383,13.33,0.004,104.0
2020-04-25T08:37:03,42.805,6.029,0.011,0.019,-0.046,106.0,111.0,102.0,13.3,1505.3,327.8,-0.8,1.9,2470.403,13.33,0.021,30.1
2020-04-25T08:40:03,42.805,6.029,0.021,-0.004,-0.029,106.0,110.0,102.0,13.4,1505.3,325.9,-0.7,1.8,2470.407,13.33,0.021,100.8
2020-04-25T08:43:03,42.805,6.029,0.006,0.007,-0.039,106.0,112.0,104.0,13.4,1505.3,328.2,-0.7,1.8,2470.372,13.33,0.009,40.6
2020-04-25T08:46:03,42.805,6.029,0.007,-0.003,-0.042,106.0,111.0,103.0,13.4,1505.3,325.8,-0.6,1.9,2470.401,13.33,0.007,113.2
2020-04-25T08:49:03,42.805,6.029,-0.013,0.008,-0.05,107.0,111.0,103.0,13.4,1505.3,324.1,-0.7,1.8,2470.403,13.33,0.015,301.6
2020-04-25T08:52:03,42.805,6.029,0.028,0.011,-0.023,106.0,111.0,103.0,13.4,1505.3,328.3,-0.7,1.8,2470.408,13.33,0.03,68.6
2020-04-25T08:55:03,42.805,6.029,0.01,0.004,-0.051,106.0,110.0,104.0,13.4,1505.3,323.8,-0.7,1.8,2470.395,13.33,0.01,68.2
2020-04-25T08:58:03,42.805,6.029,0.033,-0.004,-0.008,106.0,110.0,102.0,13.4,1505.3,323.9,-0.7,1.8,2470.379,13.33,0.033,96.9
2020-04-25T09:04:03,42.805,6.029,0.005,0.01,-0.008,107.0,110.0,103.0,13.4,1505.3,327.3,-0.7,1.8,2470.424,13.31,0.011,26.6
2020-04-25T09:07:03,42.805,6.029,0.018,0.011,-0.018,105.0,109.0,102.0,13.4,1505.3,326.7,-0.7,1.8,2470.408,13.32,0.021,58.6
2020-04-25T09:10:03,42.805,6.029,0.011,0.002,0.012,105.0,111.0,102.0,13.4,1505.3,326.8,-0.7,1.8,2470.397,13.32,0.011,79.7
2020-04-25T09:13:03,42.805,6.029,0.022,-0.002,0.002,106.0,110.0,104.0,13.4,1505.3,324.8,-0.7,1.9,2470.414,13.32,0.022,95.2
2020-04-25T09:16:03,42.805,6.029,-0.005,0.012,-0.03,107.0,111.0,103.0,13.4,1505.3,326.7,-0.7,1.8,2470.423,13.33,0.013,337.4
2020-04-25T09:19:03,42.805,6.029,-0.011,-0.001,-0.026,106.0,110.0,101.0,13.3,1505.3,324.9,-0.7,1.8,2470.371,13.33,0.011,264.8
2020-04-25T09:22:03,42.805,6.029,0.007,0.03,-0.02,106.0,110.0,104.0,13.4,1505.3,324.4,-0.7,1.8,2470.392,13.33,0.03,13.1
2020-04-25T09:25:03,42.805,6.029,0.03,-0.002,-0.018,106.0,111.0,103.0,13.4,1505.3,325.9,-0.7,1.9,2470.395,13.33,0.03,93.8
2020-04-25T09:28:03,42.805,6.029,0.011,0.008,-0.037,106.0,112.0,103.0,13.4,1505.3,325.5,-0.7,1.8,2470.418,13.33,0.013,54.0
2020-04-25T09:31:03,42.805,6.029,0.02,0.0,-0.004,105.0,110.0,103.0,13.4,1505.3,326.7,-0.7,1.8,2470.401,13.33,0.02,90.0
2020-04-25T09:34:03,42.805,6.029,0.009,0.009,-0.03,106.0,109.0,104.0,13.4,1505.3,325.8,-0.7,1.8,2470.419,13.33,0.012,45.0
2020-04-25T09:37:03,42.805,6.029,0.03,0.011,-0.003,106.0,111.0,103.0,13.4,1505.3,325.9,-0.7,1.8,2470.389,13.33,0.031,69.9
2020-04-25T09:40:03,42.805,6.029,-0.004,-0.009,-0.039,105.0,110.0,104.0,13.4,1505.3,325.7,-0.7,1.8,2470.35,13.33,0.009,204.0
2020-04-25T09:43:03,42.805,6.029,0.02,0.01,-0.028,105.0,111.0,103.0,13.3,1505.3,323.2,-0.7,1.8,2470.367,13.33,0.022,63.4
2020-04-25T09:46:03,42.805,6.029,0.034,0.0,-0.024,106.0,113.0,102.0,13.4,1505.3,326.5,-0.7,1.8,2470.39,13.33,0.034,90.0
2020-04-25T09:49:03,42.805,6.029,0.026,0.007,-0.036,106.0,112.0,104.0,13.4,1505.3,324.7,-0.7,1.8,2470.374,13.33,0.026,74.9
2020-04-25T09:52:03,42.805,6.029,0.021,0.009,-0.02,104.0,111.0,103.0,13.4,1505.3,326.4,-0.7,1.8,2470.346,13.33,0.022,66.8
2020-04-25T09:55:03,42.805,6.029,0.037,-0.005,0.0,105.0,112.0,103.0,13.4,1505.3,328.5,-0.7,1.8,2470.367,13.33,0.037,97.7
2020-04-25T09:58:03,42.805,6.029,0.024,-0.005,0.015,105.0,111.0,103.0,13.4,1505.3,324.6,-0.7,1.9,2470.367,13.33,0.024,101.8
2020-04-25T10:04:03,42.805,6.029,0.018,0.016,-0.016,106.0,110.0,102.0,13.4,1505.3,324.9,-0.8,1.8,2470.383,13.31,0.024,48.4
2020-04-25T10:07:03,42.805,6.029,0.035,0.005,-0.009,106.0,111.0,103.0,13.4,1505.3,324.1,-0.8,1.8,2470.339,13.32,0.035,81.9